Overview Statistics Trail Chart Weather Telemetry Raw packets
 

This is the latest recevied weather packets stored in our database for station/object 4S6DRJ-13. If no packets are shown the sender has not sent any weather packets the latest 10 day(s).

<< 287 288 289 290 291 292 293 >>
Time Temp. Humidity Pressure Rain* Wind** Luminosity Snow
1788047633 27.78° C 84% 1009.3 hPa 0 mm 0.45 m/s, 216° 0 W/m² -
1788047572 27.78° C 84% 1009.5 hPa 0 mm 0.45 m/s, 231° 0 W/m² -
1788047511 27.78° C 84% 1009.3 hPa 0 mm 1.34 m/s, 203° 0 W/m² -
1788047450 27.78° C 84% 1009.6 hPa 0 mm 1.79 m/s, 220° 0 W/m² -
1788047389 27.78° C 84% 1009.3 hPa 0 mm 0.45 m/s, 234° 0 W/m² -
1788047328 27.78° C 84% 1009.4 hPa 0 mm 0.45 m/s, 204° 0 W/m² -
1788047267 27.78° C 84% 1009.4 hPa 0 mm 1.79 m/s, 213° 0 W/m² -
1788047206 27.78° C 85% 1009.4 hPa 0 mm 0.45 m/s, 226° 0 W/m² -
1788047145 27.78° C 85% 1009.4 hPa 0 mm 0.89 m/s, 226° 0 W/m² -
1788047085 27.78° C 85% 1009.4 hPa 0 mm 0.89 m/s, 180° 0 W/m² -
1788047023 27.78° C 85% 1009.5 hPa 0 mm 1.34 m/s, 189° 0 W/m² -
1788046962 27.78° C 85% 1009.5 hPa 0 mm 1.34 m/s, 266° 0 W/m² -
1788046901 27.78° C 85% 1009.4 hPa 0 mm 0.89 m/s, 202° 0 W/m² -
1788046840 27.78° C 85% 1009.4 hPa 0 mm 0.45 m/s, 266° 0 W/m² -
1788046779 27.78° C 85% 1009.4 hPa 0 mm 1.34 m/s, 253° 0 W/m² -
1788046718 27.78° C 85% 1009.3 hPa 0 mm 0.45 m/s, 209° 0 W/m² -
1788046657 27.78° C 85% 1009.4 hPa 0 mm 0.89 m/s, 217° 0 W/m² -
1788046596 27.78° C 85% 1009.4 hPa 0 mm 1.34 m/s, 210° 0 W/m² -
1788046535 27.78° C 84% 1009.4 hPa 0 mm 1.79 m/s, 244° 0 W/m² -
1788046474 27.78° C 84% 1009.4 hPa 0 mm 2.24 m/s, 18° 0 W/m² -
1788046413 27.78° C 84% 1009.4 hPa 0 mm 0.45 m/s, 265° 0 W/m² -
1788046352 27.78° C 84% 1009.5 hPa 0 mm 0.45 m/s, 290° 0 W/m² -
1788046291 27.78° C 84% 1009.2 hPa 0 mm 0.45 m/s, 215° 0 W/m² -
1788046230 27.78° C 84% 1009.5 hPa 0 mm 0.89 m/s, 234° 0 W/m² -
1788046169 27.78° C 84% 1009.4 hPa 0 mm 0.89 m/s, 212° 0 W/m² -

* Rain latest hour (hover to see other rain measurements)
** Current wind speed in m/s (hover to see current wind gust speed)